SCP
3 2 2 2 2 2 2 3 2 2 2 2 1 1 1 1 1 1 1 2 3 4 5 4 3 2 2 2 2 2 2 2 1 1 1 1 1 1 1 1 1 1 1
3 2 2 2 2 2 2 3 3 2 2 2 2 1 1 1 1 1 1 2 3 4 5 5 4 2 2 2 2 2 2 2 1 1 1 1 1 1 1 1 1 1 1
3 2 2 2 2 2 3 3 3 3 3 2 2 1 1 1 1 1 1 1 2 3 5 6 4 3 2 1 2 2 2 2 1 1 1 1 1 1 1 1 1 1 1
3 2 2 2 2 3 3 3 4 4 3 2 2 1 1 1 1 1 1 1 1 2 3 5 4 3 2 1 1 2 2 2 1 1 1 1 1 1 1 1 1 1 1
3 3 2 2 2 2 3 4 4 4 4 3 2 1 1 1 1 1 1 1 1 1 2 3 4 3 2 2 1 1 1 2 1 1 1 1 1 1 1 1 1 1 1
3 3 2 2 2 2 3 4 4 4 3 3 2 2 1 1 1 1 1 1 1 1 1 2 2 2 2 2 1 1 1 1 1 1 1 1 1 1 1 1 1 1 1
3 3 2 2 2 2 3 4 4 4 3 2 2 2 1 1 1 1 1 1 1 1 1 1 2 2 2 2 1 1 1 1 1 1 1 1 1 1 1 1 1 1 1
3 3 2 2 2 2 3 4 4 4 3 2 2 2 2 1 1 1 1 1 1 1 1 1 1 2 2 2 1 1 1 1 1 1 1 1 1 1 1 1 1 1 1
3 3 3 2 2 2 3 4 4 4 3 2 2 2 2 2 1 1 1 1 1 1 1 1 1 1 2 2 1 1 1 1 1 1 1 1 1 1 1 1 1 1 1
3 3 3 3 3 3 3 4 4 4 3 2 2 2 2 2 2 1 1 1 1 1 1 1 1 1 2 2 1 1 1 1 1 1 1 1 1 1 1 1 1 1 1
4 4 4 5 4 4 3 3 4 4 3 3 2 2 2 2 2 1 1 1 1 1 1 1 1 1 2 2 1 1 1 1 1 0 1 1 1 1 1 1 1 1 1
7 7 7 7 6 4 3 3 4 4 4 3 3 3 3 2 2 2 1 1 1 1 1 1 1 2 2 2 1 1 1 0 0 0 0 0 0 0 0 1 1 1 1
10 10 10 8 7 5 4 4 5 5 4 4 4 3 3 3 3 2 2 2 1 1 1 1 1 2 2 1 1 1 1 1 0 0 0 0 0 0 0 0 0 0 0
8 9 9 8 7 6 5 5 5 5 5 5 4 4 3 3 3 3 2 2 2 1 1 1 1 1 2 2 1 1 1 1 0 0 0 0 0 0 0 0 0 0 0
5 6 7 7 7 6 5 5 6 6 6 6 6 5 4 4 3 3 2 2 1 1 1 1 1 1 2 2 1 1 1 1 1 0 0 0 0 0 0 0 0 0 0
4 5 6 7 7 6 6 5 6 6 7 7 7 6 5 5 4 3 2 2 1 1 1 1 2 1 1 2 2 2 2 2 1 0 0 0 0 0 0 0 0 0 0
4 5 6 6 7 7 7 6 5 5 6 7 7 7 6 6 5 4 3 2 2 1 1 1 1 1 1 1 2 2 2 2 1 1 0 0 0 0 0 0 0 0 0
4 4 5 5 5 6 6 6 5 4 5 6 7 8 7 6 6 5 3 2 2 1 1 1 1 1 2 1 1 1 1 1 1 1 0 0 0 0 0 0 0 0 0
4 4 4 4 4 4 5 5 5 4 4 4 6 7 7 7 6 6 4 3 2 2 2 1 1 1 2 1 1 1 1 1 1 1 1 0 0 0 0 0 0 0 0
3 4 3 3 3 3 3 4 3 3 2 3 4 5 6 6 6 6 5 4 3 2 2 2 1 1 2 1 1 1 1 1 1 1 1 1 1 0 0 0 0 0 0
3 3 3 3 2 2 2 2 2 2 2 2 2 2 4 5 5 5 4 4 3 3 3 2 2 2 2 2 1 1 1 1 1 1 1 1 1 1 1 1 0 0 0
4 4 4 4 3 3 2 1 1 1 1 1 1 1 2 3 4 4 3 2 3 3 3 2 2 2 2 2 1 1 1 1 1 1 1 1 2 2 2 1 1 0 0
6 6 6 5 4 3 2 1 1 1 1 1 1 1 2 2 3 3 2 1 1 2 2 2 2 2 2 2 1 1 1 1 1 1 1 1 1 1 1 1 1 0 0
7 7 7 5 4 3 2 1 1 1 1 2 2 2 2 2 2 2 2 1 1 1 1 2 2 2 2 2 2 2 2 2 1 1 1 1 1 1 1 1 1 0 0
8 7 6 5 3 2 2 1 1 1 2 2 2 2 2 2 1 1 1 1 1 1 1 1 1 2 2 2 2 2 3 2 1 1 1 1 1 1 1 1 0 0 0
8 7 6 4 2 2 2 1 1 1 2 2 2 2 2 2 1 1 1 1 1 1 1 1 1 1 2 2 2 2 3 3 2 1 1 1 1 1 1 1 0 0 0
Wind_Speed
1 1 1 1 0 0 1 1 1 2 2 2 2 2 2 3 3 4 4 9 10 11 12 11 11 11 11 10 10 9 9 9 8 8 7 7 6 6 6 6 6 5 5
1 1 1 1 1 1 1 1 1 1 1 1 1 2 2 3 2 3 4 6 10 11 11 11 11 10 10 10 10 9 8 8 8 8 7 6 6 6 6 6 6 5 5
1 1 1 0 1 1 1 1 1 1 1 1 1 1 2 2 2 2 3 4 5 9 11 11 10 10 10 10 10 10 9 8 8 7 7 6 6 5 5 6 6 6 6
1 0 0 1 0 0 0 0 1 0 1 1 1 1 1 2 2 2 2 3 4 5 7 11 11 10 10 10 10 10 9 8 7 7 7 7 6 6 5 5 5 6 6
1 1 1 1 0 1 0 0 1 1 0 1 0 1 1 2 2 2 3 3 3 5 5 9 11 11 11 10 10 10 9 8 8 7 7 6 6 6 5 5 5 6 6
1 1 0 0 1 0 0 1 1 0 0 0 0 1 1 1 1 2 2 2 2 4 6 7 7 8 11 11 10 10 10 9 8 8 7 6 5 5 5 5 5 5 6
0 1 1 1 0 0 0 0 0 0 0 0 1 1 0 1 2 2 2 2 2 3 4 6 5 5 6 10 10 10 10 9 8 7 6 6 5 5 6 5 5 5 5
0 0 1 0 0 0 0 0 0 0 0 0 0 0 0 1 1 1 2 2 2 1 3 6 5 5 5 5 6 9 9 8 8 8 7 6 5 5 5 5 4 5 5
0 1 1 0 0 0 0 0 0 0 1 1 1 0 1 1 1 1 1 2 2 1 2 3 6 6 6 5 6 8 8 7 7 7 7 6 5 5 6 5 5 5 5
0 0 1 0 1 1 1 0 1 1 1 1 1 1 1 2 1 1 1 1 2 2 2 2 4 5 5 5 6 9 8 6 6 6 6 5 5 5 5 5 5 6 6
1 1 1 0 0 1 1 1 2 2 1 1 1 1 1 1 1 1 1 1 1 1 2 2 2 3 4 5 5 8 9 7 6 6 5 5 4 4 4 4 5 6 6
1 2 1 1 1 1 1 1 1 1 1 2 1 1 1 1 1 1 2 2 1 1 2 1 2 3 3 4 6 10 10 9 7 6 5 4 4 4 4 4 5 5 6
2 2 2 1 1 1 1 1 1 1 1 1 1 1 1 1 0 0 1 1 1 1 1 1 2 2 3 4 5 10 9 9 8 7 5 4 4 4 4 4 5 5 5
1 1 1 1 1 1 1 1 1 1 1 1 1 1 1 1 0 0 1 1 1 1 1 1 1 2 2 3 6 8 7 10 9 7 6 5 5 4 4 4 4 4 4
1 1 1 1 1 1 1 1 0 0 1 0 1 1 1 1 1 0 0 1 1 2 1 2 1 2 2 3 7 5 5 9 10 9 8 7 6 5 4 4 3 3 3
1 1 1 1 1 1 1 1 0 0 1 0 0 0 0 1 1 1 0 0 0 1 1 1 1 2 2 2 6 4 5 10 10 9 9 8 7 6 5 4 4 4 3
0 0 0 0 0 0 1 1 1 0 0 0 0 0 0 0 1 1 1 0 0 0 1 1 0 1 2 2 3 3 3 6 6 9 9 9 8 7 6 5 5 5 4
0 0 0 0 0 0 0 1 1 1 1 0 0 0 0 0 0 1 1 1 1 1 2 2 1 1 2 3 3 3 3 4 4 9 11 10 9 8 8 7 6 6 5
0 0 0 0 0 1 1 1 1 2 1 1 1 0 1 0 1 1 1 1 1 1 1 1 2 1 1 2 3 2 3 2 4 6 10 10 10 9 9 8 8 7 6
0 0 1 1 0 1 1 1 2 2 2 1 1 1 1 0 1 1 1 1 1 1 1 1 2 2 2 2 2 2 2 2 2 3 5 6 9 10 10 9 9 8 8
1 0 0 1 1 1 2 3 3 2 2 2 2 1 1 1 1 1 1 1 1 1 1 1 1 1 1 1 2 2 2 1 2 2 2 3 4 5 6 8 9 10 9
1 1 1 0 1 1 2 3 3 3 2 2 2 2 2 2 2 2 2 2 2 2 2 2 2 2 2 2 2 2 1 1 2 1 1 3 3 4 4 5 8 11 11
1 1 1 0 1 2 3 3 4 3 2 2 2 2 2 1 1 1 2 3 3 4 4 3 3 3 3 2 2 2 2 2 3 2 2 3 2 3 3 4 9 11 10
1 1 1 1 0 1 1 2 5 2 2 2 2 2 1 1 1 1 2 2 2 2 3 3 3 3 3 1 2 3 3 3 3 3 3 3 3 3 2 2 7 9 10
1 1 1 1 0 1 0 2 3 3 2 2 2 1 1 0 1 1 2 2 2 2 2 2 2 3 3 3 3 2 3 3 3 3 2 2 2 2 2 2 4 8 9
2 1 1 1 0 1 1 1 2 2 2 2 1 1 1 0 0 1 2 2 3 3 2 2 2 3 3 4 5 5 4 3 3 2 2 2 2 1 1 1 2 3 4
Wind_Direction
40 51 61 47 353 342 52 58 45 62 47 39 55 73 77 70 79 107 126 142 146 150 153 155 155 156 156 156 155 155 155 158 158 160 161 164 169 173 178 177 177 177 176
42 23 44 28 2 360 23 58 40 63 74 49 50 58 73 73 86 111 131 142 151 155 159 160 160 161 161 161 160 160 159 162 163 164 163 165 168 175 182 179 181 181 180
63 28 26 41 340 4 35 59 45 47 121 132 117 94 93 96 93 115 135 147 155 160 163 164 164 164 165 167 167 166 164 164 167 173 170 170 170 173 176 181 183 185 186
46 1 8 356 348 22 22 114 113 32 49 58 85 94 112 121 122 128 143 149 150 155 162 165 166 166 169 170 171 171 170 170 171 176 176 179 179 176 179 183 186 185 187
39 319 359 4 351 70 325 334 86 112 83 56 62 120 124 128 136 146 137 143 145 151 158 166 169 169 171 171 171 173 174 176 176 177 178 181 185 186 184 187 188 190 191
360 302 153 355 333 72 47 42 48 82 184 264 9 52 89 118 118 123 131 140 153 158 162 163 169 173 173 171 173 174 178 180 179 181 183 184 188 190 186 187 192 194 193
319 314 0 55 314 82 38 75 104 141 128 145 113 40 114 130 113 116 124 137 149 162 154 154 164 162 167 170 173 177 179 181 178 178 183 186 190 186 185 189 195 198 197
308 196 66 352 242 117 77 11 356 58 259 91 28 187 38 76 104 127 120 124 128 143 146 152 155 151 155 156 162 169 177 181 183 184 186 186 187 182 184 188 190 192 193
302 342 94 8 300 142 125 214 330 296 303 5 34 39 102 85 108 82 91 105 128 108 124 144 147 146 149 149 157 165 162 168 180 183 187 188 188 191 196 202 206 201 200
2 38 60 71 342 15 64 316 70 320 329 320 347 50 82 105 114 112 92 108 130 122 127 145 140 144 147 140 139 147 153 162 168 174 177 178 184 191 201 205 199 202 204
65 72 87 97 41 18 36 6 45 19 11 357 353 21 64 72 85 131 144 149 135 138 146 152 137 138 144 138 142 148 156 165 165 164 166 174 184 190 194 200 202 205 206
45 33 61 70 63 34 41 44 46 54 25 12 15 22 53 79 115 131 145 157 147 146 142 149 141 142 146 144 153 150 158 166 167 168 171 179 192 198 201 204 203 203 208
52 35 27 45 23 38 59 73 62 45 51 18 6 4 16 34 50 79 123 143 125 115 134 159 158 157 162 143 144 154 161 166 172 176 181 189 200 205 210 212 212 213 213
73 68 28 45 29 36 46 63 69 77 68 32 1 8 7 355 27 113 156 147 152 131 131 180 156 167 166 139 146 163 164 172 177 182 187 194 201 204 206 202 207 210 210
104 102 79 52 14 25 34 86 69 94 90 59 333 19 17 332 349 330 290 162 171 172 183 184 174 172 159 140 154 168 163 172 179 183 187 192 198 201 201 201 201 199 200
24 91 76 67 29 19 7 17 357 319 113 156 239 37 68 332 345 342 323 308 197 176 200 179 159 165 157 163 163 176 174 171 183 188 190 192 196 201 205 205 206 205 204
13 132 129 89 28 15 347 337 311 304 185 299 285 164 188 261 349 338 320 280 259 195 189 251 158 173 167 162 161 189 181 173 185 192 193 195 198 201 205 209 209 208 207
293 359 57 121 265 36 340 306 297 298 253 231 266 298 307 299 354 320 313 276 250 215 178 206 217 193 187 187 178 198 203 192 190 192 194 197 199 202 204 207 209 211 212
327 203 265 297 296 343 316 289 294 292 289 269 251 253 262 283 309 303 293 279 268 270 200 204 228 214 192 195 181 209 221 208 218 191 192 199 201 204 207 208 211 213 215
263 318 307 290 305 353 342 345 320 295 287 270 259 251 249 237 266 262 263 272 270 272 237 229 228 209 196 201 183 202 230 226 229 213 195 195 201 207 210 211 213 214 215
269 294 294 325 328 31 18 0 320 303 305 290 267 246 227 212 209 250 266 282 282 265 248 245 245 247 222 199 207 219 222 232 245 211 186 204 196 204 210 216 217 216 212
321 307 284 334 357 32 23 13 349 310 296 283 273 268 247 216 206 208 255 279 264 255 261 251 250 248 246 237 222 232 223 230 255 223 204 231 203 204 209 208 203 204 207
295 291 293 336 67 55 25 4 338 305 294 287 279 270 270 276 221 228 240 251 260 257 242 241 252 257 252 245 238 246 244 240 242 232 219 249 235 227 216 205 189 196 203
276 277 284 291 119 92 41 356 332 292 295 299 296 293 288 310 339 349 304 279 264 268 252 235 239 255 258 263 244 245 245 252 251 239 208 233 241 240 224 185 195 197 203
274 284 309 306 290 125 60 351 330 294 288 297 296 324 318 122 118 301 284 282 285 294 296 275 247 252 257 247 233 239 243 244 256 254 212 215 235 238 229 208 202 199 202
258 254 254 232 186 176 162 351 327 298 300 294 292 306 14 347 222 288 270 268 276 287 305 316 301 269 247 240 229 219 229 238 252 263 230 212 228 224 257 225 180 191 207